Simultaneous Nadir Overpasses (SNOs) Predictions

Prediction of SNOs between FY3D and NOAA-19 Satellite Orbit:

Table of predicted SNOs for the next 14.0 days since TLE Epoch: 3/20/2020
Index Date (FY3D) Time (FY3D) Lat,Lon (FY3D) SZA (FY3D ) Date (NOAA-19) Time (NOAA-19) Lat,Lon (NOAA-19) SZA (NOAA-19 ) Distance(km) Time Diff (sec)
1 03/24/2020 11:55:40 -79.41, 148.61 100.52 03/24/2020 11:54:31 -79.42, 146.19 100.21 49.57 69
2 03/24/2020 12:46:29 79.56, -45.34 79.73 03/24/2020 12:45:23 79.55, -45.29 79.74 1.37 66
3 03/24/2020 13:37:14 -79.57, 121.91 100.28 03/24/2020 13:36:27 -79.56, 122.01 100.28 2.18 47
4 03/24/2020 14:27:58 79.56, -70.69 79.69 03/24/2020 14:27:23 79.57, -70.60 79.71 2.32 35
5 03/24/2020 15:18:43 -79.56, 96.57 100.31 03/24/2020 15:18:27 -79.58, 96.70 100.31 2.94 16
6 03/24/2020 16:09:27 79.55, -96.03 79.66 03/24/2020 16:09:24 79.56, -96.19 79.68 3.31 3
7 03/24/2020 17:00:12 -79.56, 71.22 100.35 03/24/2020 17:00:28 -79.57, 71.10 100.34 2.54 16
8 03/24/2020 17:50:57 79.58,-121.66 79.68 03/24/2020 17:51:24 79.58,-121.50 79.65 3.14 27
9 03/24/2020 18:41:41 -79.56, 45.87 100.38 03/24/2020 18:42:28 -79.58, 45.78 100.37 3.38 47
10 03/24/2020 19:32:26 79.58,-147.00 79.65 03/24/2020 19:33:25 79.57,-147.10 79.62 2.29 59




NCC Satellite Simultaneous Nadir Overpasses (SNOs) Prediction Service
